Stations météo

Publicité
Chartres, France (7143): Température de l'air & dewpoint: 18.09.2020 10:00:00 - 24.09.2020 10:00:00 (CEST)Chartres, France (7143): Température de l'air 5cm: 18.09.2020 10:00:00 - 24.09.2020 10:00:00 (CEST)Chartres, France (7143): Température de l'air -20cm & Température de l'air -100cm: 18.09.2020 10:00:00 - 24.09.2020 10:00:00 (CEST)Chartres, France (7143): Vitesse du vent & gusts: 18.09.2020 10:00:00 - 24.09.2020 10:00:00 (CEST)Chartres, France (7143): Direction du vent: 18.09.2020 10:00:00 - 24.09.2020 10:00:00 (CEST)Chartres, France (7143): reduced air pressure: 18.09.2020 10:00:00 - 24.09.2020 10:00:00 (CEST)Chartres, France (7143): visibility: 18.09.2020 10:00:00 - 24.09.2020 10:00:00 (CEST)Chartres, France (7143): Ensoleillement: 18.09.2020 10:00:00 - 24.09.2020 10:00:00 (CEST)Chartres, France (7143): Quantités de précipitations: 18.09.2020 10:00:00 - 24.09.2020 10:00:00 (CEST)
Date & Time tt [°C] td [°C] tt 5cm [°C] tt -20cm [°C] tt -100cm [°C] ff [km/h] ff [knt] fx [km/h] fx [knt] dd ppp [hPa] vv [km] sd [min] rr [mm]
24.09.2020 10:00:00 12,9 10,4 - - - 16 9 31 17 S 1005,5 20 - 0,0
24.09.2020 09:00:00 10,7 8,6 9,4 17,9 18,5 14 7 26 14 S 1006,0 20 46 0,0
24.09.2020 08:00:00 9,6 8,5 8,8 18,0 18,5 13 7 26 14 S 1006,1 20 0 0,0
24.09.2020 07:00:00 9,4 8,6 8,7 18,2 18,5 10 5 20 11 SSW 1006,8 20 0 0,2
24.09.2020 06:00:00 9,9 9,0 9,2 18,4 18,4 11 6 23 12 SSW 1007,1 20 0 0,0
24.09.2020 05:00:00 10,4 9,3 9,5 18,5 18,4 10 6 24 13 SSW 1007,2 20 0 0,0
24.09.2020 04:00:00 11,3 10,2 10,4 18,7 18,5 8 5 18 10 SW 1007,4 20 0 0,0
24.09.2020 03:00:00 11,9 10,6 11,2 18,9 18,5 9 5 18 10 SW 1007,2 20 0 0,0
24.09.2020 02:00:00 12,2 10,6 11,3 19,0 18,5 11 6 21 11 SW 1006,8 20 0 0,0
24.09.2020 01:00:00 12,5 10,0 11,6 19,1 18,5 8 4 17 9 W 1006,4 20 0 0,0
24.09.2020 00:00:00 13,5 10,1 12,4 19,2 18,5 11 6 33 18 WNW 1005,5 20 0 0,0
23.09.2020 23:00:00 15,3 12,4 14,5 19,3 18,5 13 7 38 21 WNW 1004,4 20 0 0,2
23.09.2020 22:00:00 16,4 15,6 16,0 19,3 18,5 13 7 27 14 SW 1003,7 5 0 1,4
23.09.2020 21:00:00 16,7 15,7 16,1 19,3 18,5 13 7 23 13 SSW 1003,1 6 0 0,4
23.09.2020 20:00:00 17,1 15,8 16,5 19,4 18,5 12 6 30 16 SW 1003,0 20 4 0,2
23.09.2020 19:00:00 17,2 15,9 16,2 19,4 18,5 14 8 46 25 SW 1003,2 19 0 3,5
23.09.2020 18:00:00 20,7 14,6 20,7 19,3 18,5 14 8 31 17 SSW 1003,0 20 0 0,0
23.09.2020 17:00:00 20,9 14,8 17,8 19,2 18,5 17 9 41 22 SSW 1003,7 20 0 0,2
23.09.2020 16:00:00 21,5 12,9 22,1 19,0 18,5 22 12 46 25 S 1004,4 20 7 0,0
23.09.2020 15:00:00 21,2 13,9 21,7 18,9 18,5 16 9 43 23 S 1005,0 20 7 0,0
23.09.2020 14:00:00 21,4 13,8 21,1 18,8 18,5 18 10 37 20 S 1005,8 20 16 0,0
23.09.2020 13:00:00 21,0 13,9 21,6 18,7 18,5 17 9 36 19 SSW 1006,5 20 6 0,0
23.09.2020 12:00:00 20,4 13,8 20,4 18,7 18,6 20 11 35 19 SSW 1007,0 20 13 0,0
23.09.2020 11:00:00 18,9 14,0 18,2 18,6 18,5 19 10 34 19 SW 1007,3 20 12 0,0
23.09.2020 10:00:00 17,4 14,3 17,0 18,6 18,5 16 9 34 18 SSW 1007,5 20 9 0,0
23.09.2020 09:00:00 16,6 14,4 15,3 18,7 18,5 11 6 25 13 SSW 1007,4 20 39 0,0
23.09.2020 08:00:00 15,6 14,3 15,1 18,7 18,5 9 5 22 12 SSW 1007,7 17 0 0,0
23.09.2020 07:00:00 15,4 14,3 14,6 18,8 18,5 9 5 26 14 SSW 1007,7 14 0 0,0
23.09.2020 06:00:00 15,1 14,1 14,1 18,9 18,5 15 8 26 14 SSW 1007,9 12 0 0,0
23.09.2020 05:00:00 15,3 13,8 14,4 19,0 18,6 9 5 18 10 SW 1008,4 15 0 0,0
23.09.2020 04:00:00 15,3 13,7 14,5 19,1 18,5 10 5 22 12 SW 1008,7 15 0 0,0
23.09.2020 03:00:00 15,7 13,5 14,8 19,1 18,6 8 4 19 11 SSW 1008,9 17 0 0,0
23.09.2020 02:00:00 16,4 13,7 15,6 19,3 18,6 11 6 27 14 SSW 1009,1 19 0 0,0
23.09.2020 01:00:00 16,4 13,5 15,7 19,3 18,6 9 5 23 12 SW 1009,4 20 0 0,0
23.09.2020 00:00:00 17,4 14,1 16,8 19,3 18,6 12 6 23 12 SW 1009,5 18 0 0,0
22.09.2020 23:00:00 17,6 14,3 17,0 19,4 18,6 10 5 21 11 SW 1009,7 19 0 0,0
22.09.2020 22:00:00 18,5 14,6 17,9 19,4 18,6 9 5 23 12 SW 1009,4 20 0 0,0
22.09.2020 21:00:00 18,8 14,9 18,2 19,5 18,6 12 7 29 16 WSW 1009,5 20 0 0,0
22.09.2020 20:00:00 19,9 14,7 19,4 19,4 18,6 16 8 29 16 WSW 1009,1 20 0 0,0
22.09.2020 19:00:00 23,1 9,8 22,9 19,3 18,6 10 5 25 14 WSW 1008,5 20 29 0,0
22.09.2020 18:00:00 25,4 9,2 28,8 19,1 18,6 10 5 23 12 WSW 1008,5 20 60 0,0
22.09.2020 17:00:00 25,6 6,7 28,7 18,9 18,6 10 5 25 13 W 1009,1 20 57 0,0
22.09.2020 16:00:00 26,0 6,1 31,0 18,6 18,6 10 6 25 14 W 1009,6 20 60 0,0
22.09.2020 15:00:00 25,8 4,8 30,1 18,3 18,6 10 6 21 11 SW 1010,2 16 60 0,0
22.09.2020 14:00:00 24,5 5,3 29,6 18,1 18,6 9 5 22 12 WSW 1010,9 20 60 0,0
22.09.2020 13:00:00 23,0 8,3 26,5 17,9 18,6 4 2 14 8 SW 1011,6 18 60 0,0
22.09.2020 12:00:00 21,3 9,2 26,1 17,8 18,6 6 4 14 7 SW 1012,1 15 60 0,0
22.09.2020 11:00:00 20,0 10,4 14,1 17,8 18,6 3 2 9 5 S 1012,5 15 60 0,0
22.09.2020 10:00:00 15,0 11,0 10,2 17,9 18,6 0 0 4 2 N 1013,1 12 60 0,0
22.09.2020 09:00:00 10,9 9,8 4,8 18,1 18,6 2 1 4 2 NNW 1013,4 9 56 0,0
22.09.2020 08:00:00 6,9 5,2 4,2 18,3 18,6 2 1 7 4 NW 1013,6 6 0 0,0
22.09.2020 07:00:00 9,0 8,1 4,4 18,5 18,6 4 2 7 4 NNW 1013,4 9 0 0,0
22.09.2020 06:00:00 8,4 6,7 4,6 18,7 18,6 3 2 7 4 NNW 1013,7 15 0 0,0
22.09.2020 05:00:00 9,7 7,1 5,1 18,8 18,6 4 2 7 4 NNW 1013,8 20 0 0,0
22.09.2020 04:00:00 10,4 6,3 6,5 19,0 18,6 5 3 10 6 NNW 1014,3 20 0 0,0
22.09.2020 03:00:00 10,4 6,2 5,8 19,2 18,6 5 3 9 5 NNW 1014,6 20 0 0,0
22.09.2020 02:00:00 10,4 5,0 6,4 19,4 18,6 3 2 10 5 NW 1014,9 20 0 0,0
22.09.2020 01:00:00 12,9 5,8 7,4 19,6 18,6 6 3 9 5 NW 1014,9 20 0 0,0
22.09.2020 00:00:00 11,5 5,8 7,7 19,8 18,6 4 2 7 4 NW 1015,1 20 0 0,0
21.09.2020 23:00:00 13,0 5,9 8,9 19,9 18,6 3 1 5 3 N 1015,1 20 0 0,0
21.09.2020 22:00:00 15,1 5,6 10,3 20,0 18,6 4 2 9 5 NNE 1015,1 20 0 0,0
21.09.2020 21:00:00 18,2 5,4 12,5 20,1 18,6 4 2 9 5 NNE 1014,7 20 0 0,0
21.09.2020 20:00:00 21,4 4,9 18,8 20,1 18,6 4 2 12 7 N 1014,2 20 20 0,0
21.09.2020 19:00:00 24,7 3,9 27,8 20,1 18,6 7 4 21 11 NNE 1013,9 20 57 0,0
21.09.2020 18:00:00 26,0 1,3 31,2 20,0 18,6 10 5 21 11 NNE 1013,9 20 60 0,0
21.09.2020 17:00:00 26,6 2,5 33,2 19,8 18,6 10 5 21 11 NNE 1014,1 20 60 0,0
21.09.2020 16:00:00 26,7 0,4 32,4 19,7 18,6 10 5 24 13 N 1014,4 20 60 0,0
21.09.2020 15:00:00 26,3 2,9 32,6 19,4 18,6 11 6 23 12 N 1014,8 20 60 0,0
21.09.2020 14:00:00 25,2 5,4 31,6 19,2 18,6 11 6 21 11 NNE 1015,4 20 60 0,0
21.09.2020 13:00:00 24,0 6,7 29,6 19,1 18,6 13 7 24 13 NNE 1015,6 19 60 0,0
21.09.2020 12:00:00 22,8 7,7 26,9 19,1 18,6 12 6 21 11 N 1015,7 20 60 0,0
21.09.2020 11:00:00 20,0 9,8 17,3 19,2 18,6 7 4 14 8 N 1016,1 19 60 0,0
21.09.2020 10:00:00 17,2 11,0 15,1 19,3 18,6 8 4 11 6 N 1016,1 20 60 0,0
21.09.2020 09:00:00 15,1 10,9 12,4 19,4 18,6 5 3 10 5 N 1016,3 19 48 0,0
21.09.2020 08:00:00 13,7 10,3 12,1 19,5 18,6 4 2 11 6 NNW 1016,1 20 0 0,0
21.09.2020 07:00:00 13,8 10,6 12,0 19,7 18,6 5 3 8 4 N 1015,7 20 0 0,0
21.09.2020 06:00:00 14,8 10,4 12,5 19,8 18,6 4 2 10 5 NW 1015,5 20 0 0,0
21.09.2020 05:00:00 15,2 11,6 13,1 20,0 18,6 5 3 9 5 NNW 1015,2 20 0 0,0
21.09.2020 04:00:00 15,9 11,1 13,2 20,1 18,6 4 2 9 5 NW 1015,4 20 0 0,0
21.09.2020 03:00:00 15,9 12,5 13,1 20,2 18,6 5 3 6 4 NNW 1015,8 20 0 0,0
21.09.2020 02:00:00 16,0 12,9 13,5 20,4 18,6 3 2 7 4 NW 1016,0 20 0 0,0
21.09.2020 01:00:00 17,3 13,2 14,7 20,5 18,6 2 1 10 5 N 1015,9 20 0 0,0
21.09.2020 00:00:00 17,7 14,2 15,9 20,6 18,6 8 4 10 5 NNE 1016,1 20 0 0,0
20.09.2020 23:00:00 19,1 14,1 15,6 20,7 18,6 4 2 8 5 WNW 1015,7 20 0 0,0
20.09.2020 22:00:00 18,7 14,4 16,0 20,8 18,6 4 2 6 4 NW 1015,6 20 0 0,0
20.09.2020 21:00:00 20,2 14,6 17,3 20,9 18,6 4 2 5 3 NW 1015,1 20 0 0,0
20.09.2020 20:00:00 21,9 15,0 19,1 20,9 18,6 2 1 8 4 N 1014,7 20 0 0,0
20.09.2020 19:00:00 24,5 13,7 25,9 20,9 18,6 6 4 14 8 ESE 1014,2 20 54 0,0
20.09.2020 18:00:00 24,7 13,9 26,6 20,8 18,6 7 4 19 10 E 1014,1 20 5 0,0
20.09.2020 17:00:00 24,7 14,2 27,0 20,6 18,6 11 6 22 12 E 1014,1 20 0 0,0
20.09.2020 16:00:00 24,6 15,0 27,4 20,5 18,5 7 4 13 7 E 1014,2 20 4 0,0
20.09.2020 15:00:00 23,9 16,9 26,3 20,3 18,6 8 4 14 8 E 1014,4 20 4 0,0
20.09.2020 14:00:00 22,9 17,6 25,7 20,1 18,5 6 3 14 8 ENE 1014,8 20 1 0,0
20.09.2020 13:00:00 22,8 17,5 25,0 19,9 18,5 7 4 13 7 E 1014,7 20 33 0,0
20.09.2020 12:00:00 21,7 17,3 24,7 19,9 18,6 6 3 13 7 SE 1014,7 20 34 0,0
20.09.2020 11:00:00 19,9 17,5 19,4 19,8 18,5 8 4 14 7 ESE 1014,7 20 42 0,0
20.09.2020 10:00:00 17,3 17,0 16,9 19,9 18,5 7 4 13 7 SE 1014,5 4,6 11 0,0
20.09.2020 09:00:00 16,8 16,5 16,2 20,0 18,5 5 3 9 5 E 1014,1 1,6 13 0,0
20.09.2020 08:00:00 16,3 16,0 14,9 20,1 18,5 4 2 8 4 NE 1013,5 9 0 0,0
20.09.2020 07:00:00 15,8 15,5 14,4 20,2 18,5 0 0 8 4 N 1013,1 10 0 0,0
20.09.2020 06:00:00 15,8 15,5 13,7 20,4 18,5 3 1 5 3 NNW 1013,1 0,7 0 0,0
20.09.2020 05:00:00 16,0 15,7 14,0 20,5 18,5 0 0 5 3 N 1013,2 3,4 0 0,2
20.09.2020 04:00:00 16,8 16,3 15,0 20,6 18,5 4 2 9 5 E 1013,4 9 0 0,0
20.09.2020 03:00:00 17,4 16,9 16,0 20,7 18,5 6 3 8 4 NNE 1013,0 7 0 0,0
20.09.2020 02:00:00 18,1 17,5 17,1 20,8 18,6 3 2 9 5 NE 1012,8 11 0 0,0
20.09.2020 01:00:00 18,6 17,8 18,0 20,9 18,5 3 2 11 6 NNW 1012,6 14 0 0,0
20.09.2020 00:00:00 18,8 17,8 18,1 20,9 18,6 6 3 34 19 SW 1013,4 3,9 0 2,2
19.09.2020 23:00:00 19,4 17,7 18,7 21,0 18,5 8 5 40 21 SSE 1013,5 14 0 0,0
19.09.2020 22:00:00 20,2 17,8 18,7 21,0 18,5 3 1 10 5 NE 1012,4 20 0 0,2
19.09.2020 21:00:00 21,3 17,5 19,0 21,0 18,5 4 2 21 11 E 1012,3 6 0 0,6
19.09.2020 20:00:00 25,3 15,3 24,6 21,0 18,5 4 2 11 6 NW 1011,4 20 4 0,0
19.09.2020 19:00:00 27,4 14,4 28,8 20,9 18,5 4 2 12 6 S 1011,0 20 45 0,0
19.09.2020 18:00:00 27,0 14,7 28,2 20,7 18,5 9 5 18 10 SSW 1010,9 20 34 0,0
19.09.2020 17:00:00 27,6 15,6 28,7 20,5 18,5 9 5 22 12 SSE 1011,0 20 42 0,0
19.09.2020 16:00:00 27,8 15,8 31,4 20,3 18,5 13 7 27 15 SSW 1011,2 20 58 0,0
19.09.2020 15:00:00 26,9 15,9 29,1 20,1 18,5 13 7 25 13 S 1011,6 20 51 0,0
19.09.2020 14:00:00 25,5 16,1 27,4 19,9 18,5 12 6 24 13 S 1012,4 20 16 0,0
19.09.2020 13:00:00 25,2 16,1 26,6 19,8 18,5 13 7 25 13 S 1012,3 20 28 0,0
19.09.2020 12:00:00 23,2 15,8 23,8 19,8 18,5 9 5 26 14 SSE 1012,7 20 0 0,0
19.09.2020 11:00:00 22,2 16,0 21,6 19,8 18,5 12 6 24 13 SSE 1012,9 20 0 0,0
19.09.2020 10:00:00 20,4 16,2 20,2 19,8 18,5 9 5 14 8 ESE 1012,9 20 0 0,0
19.09.2020 09:00:00 19,5 14,7 18,5 19,8 18,5 6 3 11 6 SSE 1012,9 20 0 0,0
19.09.2020 08:00:00 18,8 14,3 17,8 19,9 18,5 3 2 11 6 SSE 1012,9 20 0 0,0
19.09.2020 07:00:00 19,2 13,8 18,8 19,9 18,5 6 3 18 10 S 1012,6 20 0 0,0
19.09.2020 06:00:00 20,0 13,2 19,6 20,0 18,5 6 4 18 10 S 1012,1 20 0 0,0
19.09.2020 05:00:00 20,8 13,5 20,2 20,0 18,5 10 5 25 13 S 1011,8 20 0 0,0
19.09.2020 04:00:00 21,0 13,2 19,3 20,1 18,5 10 5 16 9 ESE 1011,6 20 0 0,0
19.09.2020 03:00:00 20,4 13,4 18,7 20,2 18,5 5 3 10 6 NNE 1011,7 20 0 0,0
19.09.2020 02:00:00 20,5 13,5 19,4 20,2 18,5 6 3 13 7 NNE 1012,1 20 0 0,0
19.09.2020 01:00:00 21,4 13,3 20,3 20,3 18,5 9 5 15 8 NNE 1012,5 20 0 0,0
19.09.2020 00:00:00 21,7 13,1 20,0 20,4 18,5 10 5 14 8 NNE 1012,9 20 0 0,0
18.09.2020 23:00:00 21,3 13,0 20,1 20,4 18,5 8 5 14 8 NNE 1013,5 20 0 0,0
18.09.2020 22:00:00 21,8 13,2 20,7 20,5 18,5 8 5 13 7 NNE 1014,0 20 0 0,0
18.09.2020 21:00:00 23,1 13,0 21,8 20,5 18,5 7 4 15 8 NE 1014,0 20 0 0,0
18.09.2020 20:00:00 25,3 12,8 24,1 20,4 18,5 8 4 31 17 ENE 1013,9 20 2 0,0
18.09.2020 19:00:00 26,7 13,1 27,2 20,3 18,5 18 10 31 17 E 1013,7 20 28 0,0
18.09.2020 18:00:00 27,8 13,0 29,3 20,1 18,5 17 9 35 19 E 1013,8 20 37 0,0
18.09.2020 17:00:00 28,6 13,3 31,1 19,9 18,5 17 9 35 19 E 1013,7 20 57 0,0
18.09.2020 16:00:00 28,0 13,1 31,3 19,7 18,4 18 10 36 20 ENE 1013,9 20 58 0,0
18.09.2020 15:00:00 27,5 13,4 30,7 19,5 18,5 18 10 34 19 E 1014,8 20 54 0,0
18.09.2020 14:00:00 26,5 12,9 30,3 19,2 18,5 16 9 40 21 E 1015,3 19 60 0,0
18.09.2020 13:00:00 24,4 12,7 28,7 19,1 18,5 16 9 33 18 ENE 1016,3 20 60 0,0
18.09.2020 12:00:00 22,5 12,4 26,1 19,0 18,5 13 7 30 16 E 1017,1 20 60 0,0
18.09.2020 11:00:00 20,5 11,7 18,2 19,0 18,5 16 9 29 16 ENE 1017,0 20 60 0,0
18.09.2020 10:00:00 18,0 10,1 15,6 19,2 18,5 12 6 25 13 ENE 1017,7 20 60 0,0

tt = Température de l'air
td = dewpoint
tt 5cm = Température de l'air 5cm
tt -20cm = Température de l'air -20cm
tt -100cm = Température de l'air -100cm
ff = Vitesse du vent
fx = gusts
dd = Direction du vent
ppp = reduced air pressure
vv = visibility
sd = Ensoleillement
rr = Quantités de précipitations

stations d'obs. à proximité